FENGYUN 1C DEB

Satellite information

Favourite Embed

Satellite Type and Status

DEBRISIN ORBIT

Key statistics

Satellite FENGYUN 1C DEB at a glance.

Uptime

9715

Days in orbit

Revolutions

≈ 14.2

Per day

Orbit

SSO

Sun Synchronous Orbit

Inclination

98.6

Latest

Satellite identification and parameters

Extended collection of information and parameters for FENGYUN 1C DEB.

Object identification

Identified? True

Debris? True

Object name: FENGYUN 1C DEB

International designator: 1999-025EVK

Object number (NORAD): 38819

Object ID (CCSDS): 38819

Country: PEOPLES REPUBLIC OF CHINA (PRC)

Current information (Y/N): Y

RCS size: SMALL

Orbital parameters

Period: 101.455 minutes

Inclination: 98.6175 deg

SMA: 7205.681 km

Apoapsis: 884.758 km

Periapsis: 770.334 km

RAAN: 332.7424 deg

Eccentricy: 0.00793982

Argument of periapsis: 214.8039 deg

Mean anomaly: 323.5095 deg

Mean motion: 14.19352326 rev/day

Mean motion (dot): 0.00001505 rev/day2

B* drag term: 0.00071386354 1/REarth

Two-line elements (TLE)

Creation date: Dec. 6, 2025, 6 a.m.

Reference frame: TEME

Reference center: EARTH

Epoch: Dec. 5, 2025, 5:44 p.m. UTC

TLE line 0: 0 FENGYUN 1C DEB

TLE line 1: 1 38819U 99025EVK 25339.73941179 .00001505 00000-0 71386-3 0 9996

TLE line 2: 2 38819 98.6175 332.7424 0079398 214.8039 323.5095 14.19352326633785

Live tracking on map

Real-time ground track for satellite FENGYUN 1C DEB.

In-orbit conjunctions

A list of the most updated potential collisions computed for object FENGYUN 1C DEB.

Target Orbit TCA Probability of collision Miss distance Type
CZ-6A DEB LEO 2024-12-31 21:17:00 0.0002156847 862.0 (m) DEBRIS
CZ-6A DEB LEO 2024-11-03 20:45:56 0.000123243 200.0 (m) DEBRIS

Associated space launch

Chinese polar orbiting meteorological satellite

FENGYUN 1C DEB was lifted into orbit during the mission ‘Long March 4B | Feng Yun 1C’, on board a Long March 4B space rocket.

The launch took place on May 10, 1999, 1:33 a.m. from Launch Complex 7.

For more information about the launch, click the button.

Launch to space Long March 4B | Feng Yun 1C
Long March 4B | Feng Yun 1C

Agency: N/A

Status: Launch Successful

Launch date: May 10, 1999, 1:33 a.m. UTC

Rocket: Long March 4B

Launch pad: Launch Complex 7

Location: Taiyuan Satellite Launch Center, People's Republic of China

...

Latest news about this satellite

There are no fresh news available about this satellite. Check back as we update our databases every day.


Newsletter sign-up

Weekly statistics, charts and insights to help you stay on top of the space industry.